Simultaneous Nadir Overpasses (SNOs) Predictions

Prediction of SNOs between AURA and LANDSAT-8 Satellite Orbit:

Table of predicted SNOs for the next 14.0 days since TLE Epoch: 8/20/2025
Index Date (AURA) Time (AURA) Lat,Lon (AURA) SZA (AURA ) Date (LANDSAT-8) Time (LANDSAT-8) Lat,Lon (LANDSAT-8) SZA (LANDSAT-8 ) Distance(km) Time Diff (sec)
1 08/20/2025 21:22:20 73.97,-137.62 61.76 08/20/2025 21:22:29 73.95,-137.56 61.74 2.80 9
2 08/20/2025 22:11:38 -73.95, 30.11 118.26 08/20/2025 22:11:57 -73.93, 30.03 118.27 3.19 19
3 08/20/2025 23:00:59 73.96,-162.27 61.78 08/20/2025 23:01:22 73.95,-162.27 61.77 1.07 23
4 08/20/2025 23:50:18 -73.99, 5.34 118.19 08/20/2025 23:50:49 -73.98, 5.43 118.19 2.97 31
5 08/21/2025 00:39:38 73.96, 173.08 61.79 08/21/2025 00:40:15 73.96, 173.02 61.80 1.95 37
6 08/21/2025 01:28:57 -73.99, -19.31 118.17 08/21/2025 01:29:42 -73.99, -19.28 118.17 0.93 45
7 08/21/2025 02:18:18 74.01, 148.31 61.86 08/21/2025 02:19:07 74.01, 148.42 61.88 3.54 49
8 08/21/2025 03:07:36 -73.98, -43.96 118.15 08/21/2025 03:08:35 -73.99, -43.99 118.14 1.50 59
9 08/21/2025 03:56:57 74.00, 123.66 61.88 08/21/2025 03:58:00 74.02, 123.71 61.90 2.53 63
10 08/21/2025 04:46:16 -74.03, -68.73 118.08 08/21/2025 04:47:28 -74.00, -68.70 118.11 3.63 72
11 08/21/2025 05:35:40 74.20, 98.53 62.10 08/21/2025 05:36:50 74.18, 99.36 62.09 25.13 70
12 08/21/2025 06:25:05 -74.54, -94.60 117.56 08/21/2025 06:26:12 -74.46, -92.33 117.61 67.88 67
13 08/21/2025 07:14:29 74.71, 72.63 62.63 08/21/2025 07:15:33 74.70, 75.88 62.65 95.50 64



Historial Predications of SNOs between AURA and LANDSAT-8
